Wind_Speed
11 11 12 12 12 13 13 13 13 14 14 15 15 15 15 17 17 18 18 20 21 22 22 22 23 25 26 26 27 27 27 28 28 29 30 31 31 31 32 33 33 32 33 33
10 11 11 12 12 12 14 14 14 14 15 16 16 16 16 16 18 18 18 19 21 22 22 22 24 25 27 27 27 27 27 28 28 29 31 31 32 32 32 33 34 34 34 34
10 11 12 12 11 12 13 14 14 15 16 16 17 16 16 16 17 18 18 18 19 21 21 22 24 25 24 24 25 25 26 26 27 28 30 31 32 32 33 33 33 34 35 35
12 12 13 12 12 12 13 14 14 15 16 16 17 18 16 16 17 17 18 19 19 20 21 23 24 25 24 24 25 25 25 26 27 28 29 31 32 34 34 34 33 34 35 35
13 13 13 13 13 14 14 15 16 16 17 17 17 19 17 18 18 18 18 19 20 21 22 22 23 25 26 25 26 26 26 27 27 28 30 32 32 33 33 33 34 35 36 36
15 14 14 14 15 15 16 16 17 18 19 18 17 19 18 18 18 18 17 18 20 21 22 23 23 25 27 27 27 27 28 28 29 29 31 32 32 33 33 34 34 35 36 37
16 16 16 16 17 18 18 18 19 19 20 19 18 20 19 18 19 19 18 18 19 20 22 23 24 25 27 28 29 29 29 29 30 31 31 33 34 34 35 35 36 36 37 37
18 18 18 17 17 18 19 19 19 20 21 20 20 21 19 19 20 20 20 19 20 21 23 24 25 26 27 29 30 30 31 31 32 32 32 33 34 34 34 35 36 37 37 37
21 20 20 19 20 20 20 20 21 22 22 22 22 22 21 21 21 21 22 22 23 23 25 25 26 27 28 29 29 30 31 32 33 34 34 34 34 35 36 36 37 37 38 38
23 23 22 22 22 23 23 23 24 24 25 25 25 24 23 22 23 24 24 25 26 26 27 28 28 29 30 30 30 31 33 33 33 34 35 36 36 37 37 37 37 38 38 38
26 26 25 25 25 26 26 26 26 27 27 28 28 26 25 24 25 26 26 26 28 28 29 30 31 32 32 33 33 34 34 35 36 36 36 37 37 37 37 38 39 39 39 40
29 29 28 28 28 29 29 29 28 29 29 29 29 28 27 26 27 27 28 28 29 30 31 32 32 33 33 35 36 35 36 36 37 37 37 38 38 39 39 39 40 40 40 40
31 32 31 31 31 31 31 31 31 31 31 31 30 30 29 29 29 30 30 30 31 31 32 33 34 34 35 36 37 37 37 37 38 38 39 39 39 40 41 42 42 41 41 41
34 34 33 33 33 33 33 33 33 34 34 33 32 31 31 32 32 32 32 32 33 33 34 35 35 36 37 38 38 38 39 39 39 39 39 40 40 41 41 42 42 43 43 43
36 37 35 35 36 36 36 35 36 36 36 36 34 34 34 34 34 34 34 34 34 35 36 36 36 36 37 38 39 40 40 40 40 40 41 41 42 42 42 43 44 44 45 45
38 39 38 38 37 38 38 37 37 38 38 38 37 36 36 36 35 35 35 36 36 36 37 37 37 38 38 39 40 41 41 41 42 43 43 43 44 44 45 45 46 46 46 47
39 40 40 40 39 41 41 38 38 39 39 40 40 38 38 38 37 37 37 37 38 38 38 38 38 39 39 40 41 41 41 43 44 44 45 45 46 46 47 47 48 48 48 48
41 41 42 42 42 43 41 40 40 41 40 41 41 40 40 41 40 40 40 40 40 40 40 40 41 41 42 42 43 43 43 43 44 45 46 46 47 48 48 49 49 50 50 50
42 42 43 44 44 44 42 41 41 42 42 42 42 42 42 42 42 41 41 41 42 42 42 43 43 43 44 44 45 46 45 45 46 46 46 47 48 49 49 49 49 49 50 50
42 43 44 45 45 44 41 41 41 42 43 41 42 42 42 42 42 41 42 42 43 44 45 45 46 46 46 46 46 47 47 47 48 48 48 48 49 49 49 49 50 50 50 50
42 43 44 44 44 44 42 42 42 43 42 41 41 41 42 42 42 42 42 43 44 45 46 46 47 47 47 47 47 47 48 49 49 49 50 50 50 51 51 51 50 50 50 50
41 42 43 43 45 44 42 42 42 42 42 42 42 42 42 43 43 43 44 44 44 45 46 47 48 48 48 49 48 48 48 49 49 49 49 49 50 50 50 50 50 51 51 51
42 42 42 43 43 42 42 42 42 43 43 43 43 43 43 43 43 44 44 45 45 45 46 47 47 47 47 48 49 49 49 50 50 50 49 50 50 50 50 51 51 51 51 52
42 42 42 43 42 42 43 43 43 43 43 43 44 44 45 44 45 45 45 44 44 44 45 45 46 46 47 47 48 49 49 50 50 50 50 51 51 51 50 50 51 51 51 51
42 43 44 44 43 43 43 43 43 44 44 44 43 43 44 44 44 44 44 44 44 44 44 44 45 45 46 46 47 48 49 50 49 49 49 49 49 49 49 49 49 50 50 50
41 41 42 43 43 44 44 44 44 44 44 44 44 44 44 45 44 44 44 44 44 44 44 44 45 46 46 46 47 47 47 47 47 48 48 48 48 48 48 47 48 48 48 48
Wind_Direction
277 273 275 279 277 273 274 276 275 275 277 277 274 273 270 270 265 260 255 250 248 245 248 247 241 239 236 235 237 238 237 239 239 241 242 243 244 244 246 246 247 246 248 250
276 276 279 280 278 273 272 274 274 275 275 276 275 273 274 272 268 262 260 253 247 246 250 246 240 238 238 239 239 241 241 241 241 242 244 245 245 247 249 252 252 251 251 252
282 282 280 279 279 277 276 276 277 278 275 277 277 274 272 269 264 263 261 258 251 249 249 248 243 239 241 243 245 244 244 245 244 245 247 248 247 249 252 254 255 254 254 255
281 282 278 276 276 280 278 276 277 280 280 280 278 274 270 269 265 265 263 262 258 254 249 248 245 241 242 246 246 246 249 250 251 250 252 251 251 252 255 257 257 258 256 255
280 281 280 276 275 277 277 276 277 278 279 278 277 276 273 274 271 269 268 264 260 255 252 249 246 244 244 247 247 249 252 254 256 256 256 256 256 255 257 257 258 257 257 258
276 278 278 278 277 276 276 277 278 278 278 278 280 282 281 278 276 273 270 266 262 255 253 249 246 244 246 248 250 250 252 255 257 260 259 259 257 256 258 258 258 258 257 258
273 274 276 277 277 277 277 277 280 279 277 279 282 283 284 281 278 274 270 267 262 257 256 252 248 248 249 251 251 250 252 257 259 262 261 260 259 259 260 258 258 257 258 259
271 273 274 275 276 278 278 278 281 281 280 281 281 282 285 282 278 273 270 267 264 261 257 256 253 252 253 253 254 254 255 259 260 262 262 261 261 260 260 259 259 259 259 259
271 272 273 273 275 276 277 277 279 281 282 282 280 281 282 281 278 273 268 267 265 264 262 260 257 256 256 256 258 259 259 262 263 265 265 265 264 263 262 262 262 262 262 262
269 270 271 272 273 274 275 277 278 278 280 281 280 281 281 279 276 272 269 268 265 265 265 263 259 257 258 258 259 262 262 264 267 267 268 268 268 267 266 266 266 265 265 265
268 268 269 270 271 273 274 275 276 276 276 278 279 280 279 277 275 273 270 267 266 266 266 265 262 260 260 260 262 264 265 266 266 268 268 269 269 267 267 266 265 265 265 266
268 268 268 268 270 272 273 274 275 274 275 276 277 279 277 275 273 272 270 268 266 266 267 267 266 265 263 262 263 264 266 267 268 268 268 269 269 268 267 266 266 266 265 266
266 267 268 268 270 271 272 272 272 272 272 273 275 277 275 273 272 271 269 268 267 266 266 266 266 266 265 264 264 265 266 268 269 269 270 270 270 269 268 267 266 266 267 266
266 267 268 269 270 271 271 271 271 271 272 272 274 275 274 272 270 270 269 268 267 267 267 266 266 265 265 265 266 266 267 268 269 270 271 271 271 270 269 269 268 268 268 267
265 267 268 269 269 269 270 270 270 271 272 272 273 272 271 271 270 268 268 269 268 268 268 268 267 265 266 266 266 267 268 268 269 270 271 271 270 270 270 270 270 269 270 269
266 268 268 269 269 269 270 269 269 270 271 272 271 271 270 270 269 268 268 268 268 269 268 267 267 267 266 267 267 266 266 267 268 270 270 270 270 270 270 270 270 270 271 271
266 267 268 268 268 268 268 270 270 271 271 270 270 270 269 269 269 269 268 268 268 268 268 267 267 268 268 268 268 266 266 267 268 269 270 270 270 270 270 271 271 272 272 273
266 266 267 268 267 267 271 270 270 271 271 270 269 268 267 268 268 268 268 268 267 267 268 267 267 268 269 268 267 267 266 267 268 269 269 269 270 270 271 271 272 272 273 273
266 267 268 268 269 270 270 271 271 271 271 270 270 269 269 268 268 268 268 268 268 268 268 268 269 269 269 269 268 268 268 268 268 269 270 270 270 271 271 272 272 273 273 273
266 266 267 268 269 271 273 272 271 271 271 270 270 270 269 269 269 269 269 269 268 269 269 269 269 270 270 270 270 269 269 270 270 270 270 271 271 271 271 272 273 273 274 274
266 266 267 268 269 269 271 271 272 271 272 271 271 270 269 270 270 270 270 270 270 271 271 271 271 272 272 272 272 271 270 270 271 271 271 271 271 271 272 273 273 273 274 274
267 267 266 266 267 269 269 269 270 271 271 271 270 270 270 270 271 272 272 272 271 271 271 271 272 272 272 272 272 272 272 271 272 272 272 272 272 273 273 273 273 274 274 274
266 266 265 265 266 267 267 267 268 268 269 270 270 270 270 271 272 273 274 274 273 272 272 271 272 272 272 272 272 272 272 272 272 272 272 272 272 273 273 272 272 273 274 274
265 265 265 265 265 265 265 266 266 268 269 270 271 271 272 272 273 273 274 274 274 274 274 273 273 272 272 272 272 272 272 273 273 273 273 272 273 272 272 272 272 272 273 274
265 265 265 265 265 264 264 265 266 267 269 270 271 271 273 273 274 274 275 275 275 274 274 274 273 273 273 273 272 272 273 273 273 273 273 272 272 272 272 272 272 273 273 274
265 265 266 266 265 264 265 265 265 267 268 269 270 270 272 273 274 275 275 276 276 275 274 274 274 274 274 274 273 273 273 273 273 273 272 272 272 272 272 272 272 272 272 273
Height
5732 5733 5732 5731 5730 5729 5729 5728 5728 5728 5727 5726 5726 5726 5726 5725 5725 5725 5725 5725 5726 5728 5729 5730 5732 5735 5737 5739 5741 5744 5748 5750 5752 5755 5757 5759 5761 5763 5765 5767 5768 5770 5772 5774
5730 5730 5729 5727 5726 5726 5725 5725 5725 5725 5723 5722 5722 5722 5722 5721 5720 5721 5721 5722 5722 5724 5725 5727 5729 5731 5733 5736 5737 5740 5742 5745 5747 5749 5751 5753 5755 5757 5759 5761 5762 5764 5765 5767
5727 5727 5725 5724 5723 5722 5722 5722 5721 5721 5719 5718 5718 5718 5718 5717 5716 5717 5717 5717 5718 5720 5722 5724 5726 5728 5730 5732 5733 5735 5737 5740 5742 5743 5745 5747 5749 5751 5753 5754 5756 5757 5758 5760
5723 5722 5721 5720 5720 5719 5719 5718 5718 5717 5716 5715 5714 5714 5714 5713 5713 5713 5713 5713 5714 5716 5718 5719 5721 5723 5726 5727 5729 5731 5732 5734 5736 5738 5739 5741 5742 5744 5745 5747 5748 5750 5751 5752
5719 5718 5718 5717 5717 5715 5715 5714 5714 5713 5712 5711 5710 5709 5711 5709 5708 5709 5709 5710 5710 5712 5713 5714 5716 5719 5721 5722 5724 5726 5727 5728 5730 5732 5733 5734 5735 5737 5738 5739 5741 5742 5742 5743
5715 5714 5714 5713 5712 5711 5711 5710 5709 5708 5707 5707 5707 5705 5706 5704 5705 5705 5705 5706 5706 5707 5708 5710 5711 5713 5715 5717 5718 5719 5721 5722 5724 5725 5726 5727 5728 5729 5731 5732 5733 5734 5734 5735
5711 5710 5709 5709 5708 5707 5706 5706 5705 5704 5702 5703 5702 5700 5702 5701 5700 5700 5701 5701 5702 5703 5703 5705 5706 5708 5709 5711 5712 5713 5715 5716 5717 5718 5719 5720 5721 5722 5722 5723 5724 5725 5725 5726
5706 5706 5705 5704 5703 5702 5701 5701 5701 5700 5698 5698 5697 5696 5698 5696 5695 5695 5695 5696 5696 5697 5698 5699 5700 5701 5703 5704 5705 5706 5707 5708 5709 5710 5710 5711 5712 5713 5713 5714 5715 5716 5716 5717
5700 5700 5699 5698 5698 5697 5696 5695 5695 5694 5692 5692 5692 5692 5692 5691 5690 5690 5690 5690 5690 5691 5692 5693 5693 5695 5696 5697 5698 5699 5700 5700 5701 5701 5702 5702 5703 5704 5704 5705 5705 5706 5706 5707
5693 5693 5693 5692 5692 5691 5691 5690 5689 5687 5686 5685 5686 5686 5686 5685 5684 5684 5684 5684 5684 5685 5685 5686 5686 5687 5688 5689 5690 5691 5692 5692 5692 5693 5693 5693 5694 5694 5694 5695 5696 5696 5696 5697
5685 5686 5686 5686 5685 5684 5684 5683 5682 5680 5679 5679 5678 5682 5679 5678 5677 5677 5677 5677 5677 5677 5678 5678 5678 5679 5680 5681 5681 5682 5682 5683 5684 5684 5684 5684 5684 5684 5684 5684 5685 5685 5686 5686
5676 5676 5677 5678 5677 5676 5676 5675 5674 5674 5673 5671 5671 5675 5672 5671 5669 5669 5669 5669 5669 5669 5669 5669 5670 5670 5671 5672 5672 5672 5673 5673 5674 5674 5674 5674 5674 5673 5674 5674 5674 5674 5675 5675
5667 5667 5667 5668 5670 5668 5667 5667 5666 5665 5664 5663 5663 5667 5664 5662 5661 5660 5660 5660 5660 5660 5661 5660 5661 5661 5661 5662 5662 5662 5662 5663 5663 5663 5663 5663 5663 5663 5663 5663 5663 5663 5663 5663
5656 5657 5658 5659 5659 5658 5658 5658 5657 5655 5654 5654 5655 5656 5655 5653 5652 5652 5651 5651 5651 5651 5651 5651 5651 5651 5651 5651 5651 5651 5652 5652 5652 5652 5652 5651 5651 5651 5651 5651 5651 5651 5651 5651
5645 5646 5647 5647 5647 5647 5647 5648 5647 5646 5645 5644 5646 5645 5645 5643 5642 5642 5641 5641 5640 5641 5641 5640 5640 5640 5640 5640 5640 5640 5640 5640 5640 5640 5640 5640 5640 5639 5639 5639 5639 5638 5638 5638
5634 5634 5635 5636 5637 5635 5635 5636 5636 5635 5634 5634 5633 5634 5634 5633 5632 5631 5631 5630 5630 5630 5630 5630 5629 5629 5629 5629 5629 5629 5629 5629 5629 5628 5628 5627 5627 5627 5626 5626 5626 5626 5625 5624
5622 5622 5622 5623 5624 5622 5623 5626 5624 5623 5623 5622 5622 5623 5622 5621 5621 5621 5620 5620 5619 5619 5619 5618 5618 5618 5618 5617 5617 5617 5617 5617 5616 5616 5615 5614 5613 5613 5613 5613 5612 5612 5611 5611
5610 5610 5609 5609 5611 5610 5615 5613 5612 5611 5611 5610 5609 5610 5610 5609 5609 5609 5608 5608 5607 5607 5607 5607 5606 5606 5605 5605 5604 5604 5604 5604 5603 5602 5602 5601 5600 5599 5599 5599 5598 5598 5597 5597
5598 5597 5596 5596 5596 5597 5601 5601 5599 5597 5598 5598 5597 5597 5597 5596 5596 5597 5596 5595 5595 5595 5594 5594 5593 5593 5592 5591 5591 5591 5591 5590 5589 5589 5588 5587 5586 5586 5585 5584 5584 5583 5582 5582
5585 5584 5584 5583 5583 5584 5589 5587 5585 5584 5585 5586 5584 5584 5584 5583 5584 5585 5583 5582 5582 5581 5581 5580 5580 5579 5579 5578 5577 5577 5577 5576 5575 5574 5574 5573 5572 5571 5570 5570 5569 5568 5567 5567
5572 5571 5571 5570 5569 5571 5574 5573 5572 5572 5573 5572 5571 5571 5571 5570 5571 5571 5570 5569 5568 5568 5567 5566 5565 5565 5564 5563 5563 5562 5562 5561 5560 5560 5559 5558 5557 5556 5556 5555 5554 5553 5552 5552
5558 5558 5558 5557 5557 5561 5561 5560 5559 5559 5558 5557 5557 5558 5557 5557 5557 5557 5556 5555 5554 5554 5553 5552 5551 5550 5549 5548 5548 5547 5547 5546 5545 5545 5544 5543 5542 5541 5540 5539 5539 5538 5537 5536
5545 5545 5544 5545 5547 5546 5546 5545 5545 5544 5544 5544 5544 5544 5544 5543 5543 5542 5542 5541 5540 5539 5538 5537 5536 5535 5535 5533 5532 5532 5531 5530 5530 5529 5528 5527 5526 5526 5525 5524 5523 5522 5521 5520
5533 5531 5530 5531 5533 5532 5532 5532 5531 5531 5531 5530 5530 5530 5529 5529 5529 5528 5527 5527 5526 5525 5523 5522 5521 5520 5520 5518 5517 5516 5516 5515 5514 5513 5513 5512 5511 5510 5509 5508 5507 5507 5506 5504
5520 5518 5517 5517 5519 5518 5519 5518 5518 5518 5517 5517 5517 5516 5515 5515 5515 5514 5513 5512 5511 5510 5509 5508 5507 5505 5504 5503 5502 5501 5500 5499 5499 5498 5497 5496 5495 5494 5493 5493 5492 5491 5490 5488
5507 5505 5504 5504 5506 5504 5506 5506 5505 5505 5505 5504 5503 5503 5502 5501 5501 5500 5499 5498 5497 5496 5495 5493 5492 5491 5490 5488 5487 5486 5484 5484 5483 5482 5481 5481 5480 5479 5478 5477 5477 5475 5474 5473